OBJECT AE, 57194

Orbit data source: Space-Track

You're viewing an uncataloged RSO

Recently launched and/or uncataloged RSOs may have evolving metadata. Metadata may include the following, but is not limited to: Owner, Manufacturer, Bus, Motor, and Mission.

OBJECT AE, 57194 is a satellite in SSO that was launched on Tue, 27 Jun 2023 UTC via a SOYUZ-2-1B launch vehicle from the Vostochny Cosmodrome (VOSTO). Unknown objects in Earth's orbit typically refer to objects detected orbiting the Earth but have not yet been identified or cataloged. These objects could be anything from previously untracked satellites, spent rocket stages, debris from satellite collisions, or even natural meteoroids temporarily captured by Earth's gravity.

Loading next visibility...
Identifier
57194, 2023-091AE
Orbit
SSO
Country
Flag of TBDTBD
Related business
Manufacturer
Sputniks
Mission
Operational Commercial Communications
Bus & Motor
CUBESAT 3U?, Unknown motor
Mass
3 kg wet, 3 kg dry
Launch date (UTC)
2023-06-27 (3 years ago)
Launch vehicle
SOYUZ-2-1B
Launch site
Vostochny Cosmodrome (VOSTO)
Object type
Unknown
Shape & HBR
Box, 0.2 m
Radar Cross Section
0.035 m², Medium (>0.1 m² and < 1m²)

Expand to show TLE details & history
Last TLE update: 7 hours ago

TLE from 7 hours ago
0 OBJECT AE
1 57194U 23091AE  26220.17967441  .00004560  00000-0  17745-3 0  9994
2 57194  97.5028 283.2358 0009452 285.0812  74.9381 15.26491389172208
Epoch: 2026-08-08T04:18Z
TLE epoch observation values (Epoch: 2026-08-08T04:18:43.869Z)
Latitude
0.00008°
Longitude
-98.14173°
Altitude
487.726 km
Speed
7.622 km/s
True Right ascension
18h 52m 56s
True Declination
0° 00' 00"
Sunlit
Object was in full shadow at epoch
Visualization orbit readout
Latitude
Unknown
Longitude
Unknown
Altitude
Unknown
Speed
Unknown
Apparent Right ascension
Unknown
Apparent Declination
Unknown
Sunlit
N/A
Visualization observer readout
Local Sidereal Time
00:58:40
Azimuth
Unknown
Elevation
Unknown
Doppler factor
Unknown
Orbital elements
Apogee altitude
489.757 km
Perigee altitude
476.787 km
Semi-major axis
6,861.409 km
Eccentricity
0.00095
Inclination
97.5028°
RAAN
283.2358°
Arg. of periapsis
285.0812°
True anomaly
75.04272°
Mean anomaly
74.9381°
Eccentric anomaly
74.99041°
Mean motion
3.81877 °/min
Orbital period
94.27 mins
BSTAR
0.00017745
Loading maneuver chart data...
Computing Atmospheric mass density...
Loading historical data...
Loading historical data...
Loading historical data...
Loading historical data...
Loading historical data...
Loading historical data...
Loading historical data...

Documentation

Showing up to 5 results
|